User: anonymous   Login
Location: NJAA Observatory
(40.6819°N, 74.8979°W)
Time: 23:28:50
(UTC-05:00)
Language:

Cosmos 2082 - Orbit

View from above orbital plane
View from above orbital plane
View from above satellite
View from above satellite

Ground track
Ground track

The orbit data is extracted from the following two-line orbital elements,

1 20624U 90046A   18054.50347179  .00000158  00000-0  10757-3 0  9994
2 20624  71.0412  48.5474 0015088 354.8974   5.1992 14.14247164432723
Epoch (UTC): 23 February 2018 12:04:59
Eccentricity: 0.0015088
inclination: 71.0412°
perigee height: 834 km
apogee height: 856 km
right ascension of ascending node: 48.5474°
argument of perigee: 354.8974°
revolutions per day: 14.14247164
mean anomaly at epoch: 5.1992°
orbit number at epoch: 43272

The dashed part of the orbit path shows where the satellite is in the earth's shadow,  

DLR